Time,TemperatureF,DewpointF,PressureIn,WindDirection,WindDirectionDegrees,WindSpeedMPH,WindSpeedGustMPH,Humidity,HourlyPrecipIn,Conditions,Clouds,dailyrainin,SoftwareType,DateUTC
2013-02-14 00:00:00,41.4,32.4,29.86,WNW,293,1.4,3.6,70,0.00,,,0.04,WUHU216HW,2013-02-14 05:00:00,
2013-02-14 00:05:00,41.4,32.4,29.86,WNW,293,0.8,3.2,70,0.00,,,0.00,WUHU216HW,2013-02-14 05:05:00,
2013-02-14 00:10:00,40.7,32.1,29.86,West,270,3.6,3.6,71,0.00,,,0.00,WUHU216HW,2013-02-14 05:10:00,
2013-02-14 00:15:00,40.5,31.9,29.86,NNE,23,1.4,5.0,71,0.00,,,0.00,WUHU216HW,2013-02-14 05:15:00,
2013-02-14 00:20:00,40.7,32.1,29.86,WSW,248,2.6,5.0,71,0.00,,,0.00,WUHU216HW,2013-02-14 05:20:00,
2013-02-14 00:25:00,40.5,31.9,29.86,WNW,293,2.2,5.0,71,0.00,,,0.00,WUHU216HW,2013-02-14 05:25:00,
2013-02-14 00:30:00,40.0,31.3,29.87,West,270,2.2,5.0,71,0.00,,,0.00,WUHU216HW,2013-02-14 05:30:00,
2013-02-14 00:35:00,39.8,31.4,29.87,West,270,4.0,4.0,72,0.00,,,0.00,WUHU216HW,2013-02-14 05:35:00,
2013-02-14 00:40:00,40.0,31.3,29.87,WNW,293,2.2,4.0,71,0.00,,,0.00,WUHU216HW,2013-02-14 05:40:00,
2013-02-14 00:45:00,40.0,31.3,29.87,NW,315,0.8,4.0,71,0.00,,,0.00,WUHU216HW,2013-02-14 05:45:00,
2013-02-14 00:50:00,39.2,31.0,29.88,NW,315,1.4,2.2,72,0.00,,,0.00,WUHU216HW,2013-02-14 05:50:00,
2013-02-14 00:56:00,38.7,31.2,29.88,NW,315,2.2,3.2,74,0.00,,,0.00,WUHU216HW,2013-02-14 05:56:00,
2013-02-14 01:01:00,39.1,31.2,29.88,NNW,338,0.8,4.0,73,0.00,,,0.00,WUHU216HW,2013-02-14 06:01:00,
2013-02-14 01:06:00,38.9,31.0,29.88,West,270,2.2,4.0,73,0.00,,,0.00,WUHU216HW,2013-02-14 06:06:00,
2013-02-14 01:11:00,38.2,30.2,29.87,NW,315,0.8,5.0,73,0.00,,,0.00,WUHU216HW,2013-02-14 06:11:00,
2013-02-14 01:16:00,37.8,30.2,29.88,NW,315,2.2,5.4,74,0.00,,,0.00,WUHU216HW,2013-02-14 06:16:00,
2013-02-14 01:21:00,38.0,30.8,29.88,WSW,248,2.6,5.4,75,0.00,,,0.00,WUHU216HW,2013-02-14 06:21:00,
2013-02-14 01:26:00,38.2,30.6,29.88,NW,315,3.6,3.6,74,0.00,,,0.00,WUHU216HW,2013-02-14 06:26:00,
2013-02-14 01:31:00,37.8,30.2,29.88,NW,315,2.2,5.4,74,0.00,,,0.00,WUHU216HW,2013-02-14 06:31:00,
2013-02-14 01:36:00,37.3,29.7,29.88,WNW,293,2.2,5.4,74,0.00,,,0.00,WUHU216HW,2013-02-14 06:36:00,
2013-02-14 01:41:00,37.4,30.2,29.88,WNW,293,3.6,7.2,75,0.00,,,0.00,WUHU216HW,2013-02-14 06:41:00,
2013-02-14 01:46:00,38.0,30.4,29.89,WNW,293,3.2,7.2,74,0.00,,,0.00,WUHU216HW,2013-02-14 06:46:00,
2013-02-14 01:51:00,37.6,30.1,29.89,NNW,338,3.2,5.4,74,0.00,,,0.00,WUHU216HW,2013-02-14 06:51:00,
2013-02-14 01:56:00,36.9,29.7,29.88,NW,315,2.2,4.4,75,0.00,,,0.00,WUHU216HW,2013-02-14 06:56:00,
2013-02-14 02:01:00,36.4,29.2,29.89,NW,315,3.2,3.6,75,0.00,,,0.00,WUHU216HW,2013-02-14 07:01:00,
2013-02-14 02:06:00,36.9,30.1,29.88,NNW,338,3.6,3.6,76,0.00,,,0.00,WUHU216HW,2013-02-14 07:06:00,
2013-02-14 02:11:00,36.7,29.5,29.88,NW,315,1.8,3.6,75,0.00,,,0.00,WUHU216HW,2013-02-14 07:11:00,
2013-02-14 02:16:00,36.4,28.8,29.89,NW,315,2.2,3.2,74,0.00,,,0.00,WUHU216HW,2013-02-14 07:16:00,
2013-02-14 02:21:00,36.2,29.0,29.89,NW,315,2.2,4.4,75,0.00,,,0.00,WUHU216HW,2013-02-14 07:21:00,
2013-02-14 02:26:00,36.2,29.0,29.89,NW,315,1.8,4.4,75,0.00,,,0.00,WUHU216HW,2013-02-14 07:26:00,
2013-02-14 02:31:00,36.9,29.7,29.89,WNW,293,2.2,3.2,75,0.00,,,0.00,WUHU216HW,2013-02-14 07:31:00,
2013-02-14 02:36:00,37.1,29.5,29.90,WNW,293,0.8,2.6,74,0.00,,,0.00,WUHU216HW,2013-02-14 07:36:00,
2013-02-14 02:41:00,36.7,29.2,29.90,WNW,293,0.0,2.2,74,0.00,,,0.00,WUHU216HW,2013-02-14 07:41:00,
2013-02-14 02:46:00,36.7,29.5,29.90,West,270,0.0,0.8,75,0.00,,,0.00,WUHU216HW,2013-02-14 07:46:00,
2013-02-14 02:51:00,36.4,28.5,29.91,SSE,158,1.4,1.8,73,0.00,,,0.00,WUHU216HW,2013-02-14 07:51:00,
2013-02-14 02:56:00,36.4,28.8,29.91,SE,135,0.0,1.8,74,0.00,,,0.00,WUHU216HW,2013-02-14 07:56:00,
2013-02-14 03:01:00,36.2,29.0,29.91,ESE,113,0.0,1.8,75,0.00,,,0.00,WUHU216HW,2013-02-14 08:01:00,
2013-02-14 03:06:00,35.8,28.3,29.91,SW,225,0.0,1.4,74,0.00,,,0.00,WUHU216HW,2013-02-14 08:06:00,
2013-02-14 03:11:00,35.5,27.9,29.91,SW,225,0.0,0.0,74,0.00,,,0.00,WUHU216HW,2013-02-14 08:11:00,
2013-02-14 03:16:00,35.1,27.9,29.91,SW,225,0.0,0.0,75,0.00,,,0.00,WUHU216HW,2013-02-14 08:16:00,
2013-02-14 03:21:00,35.1,27.9,29.92,SW,225,0.0,0.0,75,0.00,,,0.00,WUHU216HW,2013-02-14 08:21:00,